FW4125 Weather Reports


Display with metric or nautical units.
time (UTC)temp
F
wind
direction
speed
MPH
gust
MPH
rain 1hr
in
rain 24hr
in
rain mn
in
humidity
%
barometer
mb
20260902163100 84 166 0.0 2.0 0.00 0.02 0.01 53 927.2
20260902161557 83 258 0.0 0.0 0.00 0.02 0.01 55 927.2
20260902160104 82 262 0.0 0.0 0.00 0.02 0.01 57 927.2
20260902154555 81 265 0.0 0.0 0.00 0.02 0.01 57 927.2
20260902153057 80 311 0.0 2.0 0.00 0.02 0.01 60 927.2
20260902151556 79 284 0.0 3.0 0.00 0.02 0.01 61 927.2
20260902150057 78 210 0.0 1.0 0.00 0.02 0.01 63 927.2
20260902144556 78 198 0.0 2.0 0.00 0.02 0.01 64 927.2
20260902143054 77 198 0.0 2.0 0.00 0.02 0.01 64 927.2
20260902141608 77 198 0.0 3.0 0.00 0.02 0.01 65 927.2
20260902140058 76 203 0.0 3.0 0.00 0.02 0.01 65 927.2
20260902134557 76 197 0.0 3.0 0.00 0.02 0.01 65 927.2
20260902133100 76 198 0.0 1.0 0.00 0.02 0.01 66 795.8
20260902131615 76 199 0.0 0.0 0.01 0.02 0.01 65 795.8
20260902130058 75 199 0.0 0.0 0.01 0.02 0.01 64 795.8
20260902124503 75 199 0.0 0.0 0.01 0.02 0.01 64 795.8
20260902123009 75 188 0.0 0.0 0.01 0.03 0.01 63 795.8
20260902121509 76 183 0.0 0.0 0.00 0.02 0.00 62 795.8
20260902120010 76 183 0.0 0.0 0.00 0.02 0.00 61 795.8
20260902114507 77 183 0.0 0.0 0.00 0.02 0.00 60 795.8
20260902113005 78 183 0.0 0.0 0.00 0.02 0.00 59 795.8
20260902111501 78 181 0.0 0.0 0.00 0.02 0.00 59 795.8
20260902110111 78 181 0.0 0.0 0.00 0.02 0.00 59 795.8
20260902104514 78 181 0.0 0.0 0.00 0.02 0.00 59 795.8
20260902103006 78 181 0.0 0.0 0.00 0.02 0.00 59 795.8
20260902101510 79 181 0.0 0.0 0.00 0.02 0.00 59 795.8
20260902100014 79 181 0.0 0.0 0.00 0.02 0.00 59 795.8
20260902094514 79 181 0.0 0.0 0.00 0.02 0.00 59 795.8
20260902093015 79 181 0.0 0.0 0.00 0.02 0.00 59 795.8
20260902091519 79 181 0.0 0.0 0.00 0.02 0.00 59 795.8
20260902090032 79 181 0.0 0.0 0.00 0.02 0.00 59 795.8
20260902084522 79 181 0.0 0.0 0.00 0.02 0.00 59 795.8
20260902083027 79 181 0.0 0.0 0.00 0.02 0.00 58 795.8
20260902081528 79 181 0.0 0.0 0.00 0.02 0.00 58 795.8
20260902080030 80 181 0.0 0.0 0.00 0.02 0.00 57 795.8
20260902074523 80 181 0.0 1.0 0.00 0.02 0.00 56 795.8
20260902073033 81 181 0.0 2.0 0.00 0.03 0.00 55 795.8
20260902071533 82 181 0.0 2.0 0.00 0.03 0.00 54 795.8
20260902070039 82 183 0.0 2.0 0.00 0.03 0.00 54 795.8
20260902064541 82 187 0.0 2.0 0.00 0.03 0.00 53 795.8
20260902063036 81 187 0.0 2.0 0.00 0.03 0.00 53 795.8
20260902061548 81 187 0.0 3.0 0.00 0.03 0.00 54 795.8
20260902060042 81 169 0.0 2.0 0.00 0.03 0.00 54 795.8
20260902054545 81 169 0.0 2.0 0.01 0.03 0.00 54 795.8
20260902053039 81 168 0.0 2.0 0.01 0.04 0.03 53 795.8
20260902051541 82 166 0.0 3.0 0.01 0.04 0.03 51 795.8
20260902050042 83 175 1.0 3.0 0.01 0.04 0.03 50 795.8
20260902044543 85 131 0.0 1.0 0.00 0.03 0.02 48 795.8
20260902043044 86 131 0.0 0.0 0.00 0.03 0.02 46 795.8
20260902041556 86 133 0.0 0.0 0.00 0.03 0.02 46 795.8
20260902040056 86 137 0.0 0.0 0.00 0.03 0.02 46 795.8
20260902034606 86 132 0.0 0.0 0.00 0.03 0.02 46 795.8
20260902033103 87 131 0.0 0.0 0.00 0.03 0.02 46 795.8
20260902031502 87 135 0.0 0.0 0.00 0.03 0.02 44 795.8
20260902030003 88 150 0.0 0.0 0.00 0.03 0.02 43 795.8
20260902024505 88 143 0.0 0.0 0.00 0.03 0.02 42 795.8
20260902023007 89 148 0.0 0.0 0.00 0.03 0.02 40 795.8
20260902021511 90 130 0.0 0.0 0.00 0.03 0.02 40 795.8
20260902020003 90 130 0.0 0.0 0.00 0.03 0.02 39 795.8
20260902014506 91 130 0.0 0.0 0.00 0.03 0.02 37 795.8
20260902013009 92 130 0.0 0.0 0.00 0.03 0.02 36 795.8
20260902011511 93 130 0.0 0.0 0.00 0.03 0.02 34 795.8
20260902010018 94 130 0.0 0.0 0.00 0.03 0.02 33 795.8
20260902004512 95 130 0.0 0.0 0.00 0.03 0.02 31 795.8
20260902003015 96 130 0.0 0.0 0.00 0.03 0.02 30 795.8
20260902001518 96 130 0.0 0.0 0.00 0.03 0.02 31 795.8
20260902000026 96 130 0.0 0.0 0.00 0.03 0.02 31 795.8
20260901234519 97 113 0.0 0.0 0.00 0.03 0.02 30 795.8
20260901233024 98 100 0.0 2.0 0.00 0.03 0.02 29 795.8
20260901231520 98 149 0.0 3.0 0.00 0.03 0.02 29 795.8
20260901230022 98 152 0.0 2.0 0.00 0.03 0.02 27 795.8
20260901224523 99 152 0.0 2.0 0.00 0.03 0.02 27 795.8
20260901223023 100 113 1.0 3.0 0.00 0.03 0.02 27 795.8
20260901221528 100 131 0.0 3.0 0.00 0.03 0.02 25 795.8
20260901220042 101 82 0.0 2.0 0.00 0.03 0.02 25 795.8
20260901214540 101 90 1.0 3.0 0.00 0.03 0.02 26 795.8
20260901213038 101 40 0.0 3.0 0.00 0.03 0.02 26 795.8
20260901211542 100 81 1.0 3.0 0.00 0.03 0.02 26 795.8
20260901210057 101 114 0.0 3.0 0.00 0.03 0.02 26 873.6
20260901204549 101 259 1.0 3.0 0.00 0.03 0.02 26 873.6
20260901203107 101 212 0.0 3.0 0.00 0.03 0.02 26 873.6
20260901201554 101 218 0.0 3.0 0.00 0.03 0.02 28 873.6
20260901200058 100 108 1.0 4.0 0.00 0.03 0.02 28 873.6
20260901194555 99 323 0.0 3.0 0.00 0.03 0.02 31 873.6
20260901193054 99 90 1.0 3.0 0.00 0.03 0.02 31 873.6
20260901191605 98 145 0.0 3.0 0.00 0.03 0.02 32 873.6
20260901190112 98 100 0.0 2.0 0.00 0.03 0.02 31 873.6
20260901184559 98 100 1.0 4.0 0.00 0.03 0.02 32 873.6
20260901183056 97 127 0.0 4.0 0.00 0.03 0.02 35 873.6
20260901181556 96 223 0.0 3.0 0.00 0.03 0.02 35 873.6
20260901180057 95 166 0.0 4.0 0.00 0.03 0.02 35 873.6
20260901174615 94 150 1.0 4.0 0.00 0.03 0.02 36 873.6
20260901173058 93 245 1.0 5.0 0.00 0.03 0.02 37 873.6
20260901171559 91 266 2.0 6.0 0.00 0.03 0.02 39 873.6
20260901170059 89 222 0.0 4.0 0.00 0.03 0.02 44 873.6
20260901164555 88 216 1.0 3.0 0.00 0.03 0.02 45 873.6